Location: Observatory Park - Geauga Park District
(41.5832°N, 81.0716°W)
Time: 08:02:38
(UTC-04:00)

Envisat - Pass Details

Date: 04 October 2021
Orbit: 764 x 766 km, 98.2° (Epoch: 20 October)

Event Time Altitude Azimuth Distance (km) Brightness Sun altitude
Rises 06:03:38 0° 19° (NNE) 3,236 6.6 -15.9°
Reaches altitude 10° 06:06:04 10° 26° (NNE) 2,306 5.9 -15.5°
Maximum altitude 06:10:54 44° 98° (E) 1,054 4.3 -14.6°
Drops below altitude 10° 06:15:42 10° 170° (S) 2,290 5.5 -13.7°
Sets 06:18:06 0° 177° (S) 3,211 6.2 -13.2°
